Regional Weather Roundup
Issued by NWS Sioux Falls, SD

Home | Current Version | Previous Version | Graphics & Text | Print | Product List | Glossary Off
Versions: 1 2 3 4 5 6 7 8 9 10 11 12 13 14 15 16 17 18 19 20 21 22 23 24 25 26 27 28 29 30 31 32 33 34 35 36 37 38 39 40 41 42 43 44 45 46 47 48 49 50

643
ASUS43 KFSD 221410
RWRFSD

WEATHER ROUNDUP FOR SE SOUTH DAKOTA/SW MINNESOTA/NW IOWA
NATIONAL WEATHER SERVICE SIOUX FALLS SD
900 AM CDT FRI MAY 22 2015

NOTE: "FAIR" INDICATES FEW OR NO CLOUDS BELOW 12,000 FEET WITH NO
SIGNIFICANT WEATHER AND OR OBSTRUCTIONS TO VISIBILITY.


SDZ038>040-050-052>070-221500-
SOUTHEAST SOUTH DAKOTA

CITY           SKY/WX    TMP DP  RH WIND       PRES   REMARKS
BROOKINGS      SUNNY     61  34  36 SE6       30.21S
CHAMBERLAIN    SUNNY     56  45  65 CALM      30.18R
HURON          SUNNY     59  42  53 S3        30.18F
MADISON        FAIR      59  39  47 CALM      30.20S
MITCHELL       SUNNY     59  42  53 SE6       30.20S
SIOUX FALLS    MOSUNNY   61  46  57 E3        30.20S
WINNER         FAIR      58  43  57 SE6       30.18R
YANKTON        SUNNY     55  43  62 CALM      30.21R
$$

MNZ071-072-080-081-089-090-097-098-221500-
SOUTHWEST MINNESOTA

CITY           SKY/WX    TMP DP  RH WIND       PRES   REMARKS
FAIRMONT       SUNNY     63  36  36 CALM      30.21R
JACKSON        SUNNY     63  32  31 CALM      30.22R
LUVERNE        SUNNY     59  41  51 CALM      30.21S
MARSHALL       SUNNY     61  36  39 CALM      30.20R
MONTEVIDEO     SUNNY     61  45  55 CALM      30.21S
PIPESTONE      SUNNY     63  34  34 E3        30.20S
REDWOOD FALLS  SUNNY     57  42  57 NE5       30.20S
TRACY          SUNNY     62  36  38 CALM      30.21R
WORTHINGTON    SUNNY     63  37  39 E3        30.21S
$$

IAZ001>003-012>014-020>022-031-032-NEZ013-014-SDZ071-221500-
NORTHWEST IOWA

CITY           SKY/WX    TMP DP  RH WIND       PRES   REMARKS
CHEROKEE       SUNNY     56  48  74 CALM      30.22R
DENISON        MOSUNNY   61  46  59 NW6       30.20S
ESTHERVILLE    SUNNY     62  41  46 N6        30.21R
LE MARS        MOSUNNY   59  46  63 CALM      30.22S
ORANGE CITY    SUNNY     59  43  55 CALM      30.21R
SHELDON        SUNNY     61  37  41 CALM      30.20S
SIOUX CITY     MOSUNNY   59  43  55 S3        30.22R
SPENCER        SUNNY     61  42  49 CALM      30.21R
STORM LAKE     SUNNY     63  37  39 CALM      30.22R
$$

ABBREVIATIONS USED IN REMARKS
   TC - TEMPERATURE IN CELSIUS
  WCI - WIND CHILL INDEX
   HX - HEAT INDEX
  VSB - VISIBILITY




USA.gov is the U.S. government's official web portal to all federal, state and local government web resources and services.